Regional Weather Roundup
Issued by NWS

Home | Current Version | Previous Version | Graphics & Text | Print | Product List | Glossary On
Versions: 1 2 3 4 5 6 7 8 9 10 11 12 13 14 15 16 17 18 19 20 21 22 23 24 25 26 27 28 29 30 31 32 33 34 35 36 37 38 39 40 41 42 43 44 45 46 47 48 49 50
439
ASUS45 KPSR 060210
RWRAZ

ARIZONA HOURLY REGIONAL WEATHER ROUNDUP
NATIONAL WEATHER SERVICE PHOENIX AZ
700 PM MST THU MAY 05 2016

NOTE: FAIR INDICATES FEW OR NO CLOUDS BELOW 12,000 FEET WITH NO
SIGNIFICANT WEATHER AND/OR OBSTRUCTIONS TO VISIBILITY.

AZZ001>003-036-060300-
NORTHWEST ARIZONA

CITY           SKY/WX    TMP DP  RH WIND       PRES   REMARKS
BULLHEAD CITY  CLOUDY    84  28  13 S17       29.63R
KINGMAN        PTCLDY    73  24  16 S16G29    29.75S
$$

AZZ004>008-015-016-018-060300-
NORTH CENTRAL ARIZONA

CITY           SKY/WX    TMP DP  RH WIND       PRES   REMARKS
GRAND CANYON   CLEAR     66  12  12 S12       29.95S
WILLIAMS       CLEAR     63  12  14 S18G29    30.00F
PRESCOTT       CLEAR     69  20  15 SW16      29.87R
FLAGSTAFF      PTCLDY    61  14  16 SW9       29.96F
PAYSON         PTCLDY    73  18  12 VRB7G18   29.91S
PAGE           MOCLDY    82  17   9 S15G26    29.75S
$$

AZZ009>014-017-060300-
NORTHEAST ARIZONA

CITY           SKY/WX    TMP DP  RH WIND       PRES   REMARKS
WINSLOW        MOCLDY    76  20  12 S14       29.85S
SAINT JOHNS    MOCLDY    74  30  19 S20G28    29.92R
WINDOW ROCK    CLOUDY    70  31  23 SE7       29.99S
SHOW LOW       PTCLDY    66  16  14 SW13      29.97S
$$

AZZ023-060300-
GREATER PHOENIX AREA

CITY           SKY/WX    TMP DP  RH WIND       PRES   REMARKS
PHOENIX        PTCLDY    87  34  15 W29G37    29.65R
BUCKEYE        CLEAR     82  28  14 S17G26    29.69S
GLENDALE       PTCLDY    88  32  13 SW24G36   29.68R
LUKE AFB       CLEAR     85  36  17 SW26      29.67R
DEER VALLEY    CLEAR     84  33  16 SW23      29.67R
SCOTTSDALE     CLEAR     86  31  13 W22G30    29.69R
MESA-GATEWAY   PTCLDY    90  30  12 MISG      29.66S
CHANDLER       CLEAR     90  28  11 MISG      29.66R
$$

AZZ027-028-060300-
SOUTHWEST MARICOPA COUNTY AND PINAL COUNTY

CITY           SKY/WX    TMP DP  RH WIND       PRES   REMARKS
CASA GRANDE    CLEAR     90  34  13 SW23G29   29.68R
GILA BEND      PTCLDY    82  30  15 SW20      29.69R
$$

AZZ503-504-507>509-060300-
SOUTHEAST ARIZONA

CITY           SKY/WX    TMP DP  RH WIND       PRES   REMARKS
TUCSON         CLEAR     87  18   8 SW13      29.79R
DAVIS-MONTHAN  CLEAR     85  18   8 S17       29.78R
RYAN FIELD     CLEAR     88  21   8 S20       29.77R
NOGALES        CLEAR     78  22  12 S24G32    29.88S
SIERRA VISTA   CLEAR     76   7   7 S13       29.94R
DOUGLAS        CLEAR     78   5   6 S13       29.91R
SAFFORD        PTCLDY    87   8   5 SW8       29.76R
$$

AZZ020-021-025-026-031-060300-
SOUTHWEST ARIZONA

CITY           SKY/WX    TMP DP  RH WIND       PRES   REMARKS
YUMA           PTCLDY    77  40  26 W21G28    29.68R BLWGDUST
$$

CAZ031-033-041-043-047-048-061-060300-
SOUTHERN CALIFORNIA

CITY           SKY/WX    TMP DP  RH WIND       PRES   REMARKS
DOWNTOWN L.A.  CLOUDY    64  46  52 CALM      29.86S
L.A. AIRPORT   MOCLDY    63  49  60 W9        29.86F
SAN DIEGO      MOCLDY    65  48  54 SW6       29.87F
BURBANK        CLOUDY    60  46  59 S6        29.86
ONTARIO        MOCLDY    60  47  61 NW13      29.85F
RIVERSIDE      CLOUDY    63  44  50 W13G21    29.84F
PALM SPRINGS   CLEAR     74  40  29 NW10G23   29.71F
EL CENTRO NAS  PTCLDY    74  40  29 W24G36    29.72S
IMPERIAL       CLEAR     73  41  31 W18G36    29.69R
BLYTHE         CLEAR     81  41  24 W22       29.64S
NEEDLES        CLOUDY    85  32  15 SW20G26   29.63R
$$

NVZ020-UTZ003-060300-
SOUTHERN NEVADA-UTAH

CITY           SKY/WX    TMP DP  RH WIND       PRES   REMARKS
LAS VEGAS      CLOUDY    80  23  12 S10       29.62S
SALT LAKE CITY CLOUDY    79  29  16 SE10      29.75F
$$

NMZ009-TXZ055-060300-
NEW MEXICO-WEST TEXAS

CITY           SKY/WX    TMP DP  RH WIND       PRES   REMARKS
ALBUQUERQUE    CLOUDY    78  24  13 S17       30.00R
EL PASO        PTCLDY    85  30  13 SE16      29.91S
$$


........................KEY........................
SKY/WX - SKY CONDITION/WEATHER
TMP    - TEMPERATURE IN FAHRENHEIT
DP     - DEW POINT IN FAHRENHEIT
RH     - RELATIVE HUMIDITY IN PERCENT
WIND   - DIRECTION AND SPEED IN MILES PER HOUR (MPH)
VRB    - VARIABLE WIND DIRECTION
PRES   - MEAN SEA LEVEL PRESSURE IN INCHES OF MERCURY
         F - FALLING PRESSURE   R - RISING PRESSURE
         S - STEADY PRESSURE
VSB    - VISIBILITY IN MILES
HX     - HEAT INDEX IN FAHRENHEIT
WCI    - WIND CHILL INDEX IN FAHRENHEIT
TC     - TEMPERATURE IN CELSIUS WHICH IS ALSO KNOWN AS
         TEMPERATURE IN CENTIGRADE
AFB    - AIR FORCE BASE
         LUKE AFB IS LUKE AIR FORCE BASE
         DAVIS-MONTHAN IS DAVIS-MONTHAN AIR FORCE BASE
NAS    - NAVAL AIR STATION
         EL CENTRO NAS IS EL CENTRO NAVAL AIR STATION
N/A    - NOT AVAILABLE





USA.gov is the U.S. government's official web portal to all federal, state and local government web resources and services.